Regional Weather Roundup
Issued by NWS

Home | Current Version | Previous Version | Text Only | Print | Product List | Glossary Off
Versions: 1 2 3 4 5 6 7 8 9 10 11 12 13 14 15 16 17 18 19 20 21 22 23 24 25 26 27 28 29 30 31 32 33 34 35 36 37 38 39 40 41 42 43 44 45 46 47 48 49 50

000
ASUS45 KABQ 252301
RWRNM
NEW MEXICO REGIONAL WEATHER ROUNDUP
NATIONAL WEATHER SERVICE ALBUQUERQUE NM
400 PM MST SUN FEB 25 2018

NOTE: "FAIR" MEANS FEW OR NO CLOUDS BELOW 12,000 FEET AGL WITH NO
       SIGNIFICANT WEATHER OR OBSTRUCTIONS TO VISION.

      THIS PRODUCT IS RELEASED AS TWO VERSIONS.  ONE VERSION NEAR
      THE TOP OF THE HOUR CONTAINING PRELIMINARY DATA FROM ALBUQUERQUE
      AND OTHER STATIONS.  A FINAL VERSION WITH ADDITIONAL DATA IS
      ISSUED ABOUT 10 MINUTES AFTER THE HOUR.

NMZ501-503-504-510>518-260000-
NORTHWEST PLATEAU/NORTHCENTRAL MOUNTAINS

CITY           SKY/WX    TMP DP  RH WIND       PRES   REMARKS
FARMINGTON     FAIR      40   3  21 W20       30.12R WCI  30
LOS ALAMOS     FAIR      35   1  24 E5        30.10R WCI  31
SANTA FE       FAIR      41   2  19 N13G20    30.08R
TAOS           FAIR      36   1  22 NW8       30.09R WCI  30
ANGEL FIRE     FAIR      27   1  33 W25G35    30.01R WCI  11

$$
NMZ402-403-502-505>509-260000-
WESTCENTRAL MOUNTAINS/SOUTHWEST MOUNTAINS

CITY           SKY/WX    TMP DP  RH WIND       PRES   REMARKS
GALLUP         FAIR      41   6  23 SW8       30.13R
GRANTS         FAIR      41   3  20 N13G20    30.13R
SILVER CITY    FAIR      53   3  13 NW10      30.11R

$$
NMZ407-409-411-412-260000-
SOUTHERN DESERTS

CITY           SKY/WX    TMP DP  RH WIND       PRES   REMARKS
DEMING         FAIR      55   4  12 W17G24    30.10S
LAS CRUCES     FAIR      58   3  11 N7        30.11S
HOLLOMAN AFB   FAIR      55   1  11 N17G23    30.14R
ALAMOGORDO     FAIR      54   0  11 N17G24    30.13R
T OR C         FAIR      56   0  10 N10       30.10R

$$
NMZ519>523-260000-
CENTRAL VALLEYS/CENTRAL HIGHLANDS

CITY           SKY/WX    TMP DP  RH WIND       PRES   REMARKS
ALBUQUERQUE    FAIR      43   7  22 N10G18    30.14R
DOUBLE EAGLE   SUNNY     41   7  24 NW12G18   30.13S
MORIARTY ARPT  FAIR      42   3  20 NW10G18   30.12R
CLINES CORNERS FAIR      36   6  28 NW26G38   30.08R WCI  24
BELEN          FAIR      47  -1  13 CALM      30.12S
SOCORRO        FAIR      50   1  13 N9        30.11S

$$
NMZ524>526-539-540-260000-
SOUTHCENTRAL MOUNTAINS

CITY           SKY/WX    TMP DP  RH WIND       PRES   REMARKS
RUIDOSO        NOT AVBL

$$
NMZ527>531-260000-
NORTHEAST HIGHLANDS/NORTHEAST PLAINS

CITY           SKY/WX    TMP DP  RH WIND       PRES   REMARKS
LAS VEGAS      FAIR      39  -1  18 CALM      30.02R
RATON          FAIR      41 -10  11 SW6       29.95R
CLAYTON        FAIR      46 -11   9 NW6       29.97S

$$
NMZ532>537-260000-
EASTCENTRAL PLAINS

CITY           SKY/WX    TMP DP  RH WIND       PRES   REMARKS
SANTA ROSA     FAIR      48   4  16 W12G17    30.04R
TUCUMCARI      FAIR      53   0  11 NW18G24   30.00R
CANNON AFB     FAIR      51   6  16 W17G29    30.04R
CLOVIS AIRPORT FAIR      52   7  16 NW22      30.04R

$$
NMZ028-029-538-260000-
SOUTHEAST PLAINS

CITY           SKY/WX    TMP DP  RH WIND       PRES   REMARKS
ROSWELL        FAIR      57   2  11 NW29G39   30.03R
ARTESIA        FAIR      61   1   9 N25G33    30.04R
CARLSBAD       FAIR      63   3   9 N16G23    30.02R
HOBBS          SUNNY     61  -2   8 NW24G30   30.03R


$$




USA.gov is the U.S. government's official web portal to all federal, state and local government web resources and services.